This is the latest recevied weather packets stored in our database for station/object IT9FDP-13. If no packets are shown the sender has not sent any weather packets the latest 10 day(s).
| Time | Temp. | Humidity | Pressure | Rain* | Wind** | Luminosity | Snow |
|---|---|---|---|---|---|---|---|
| 1777473021 | 19.44° C | 74% | 1014.6 hPa | 0 mm | - | - | - |
| 1777472420 | 18.89° C | 75% | 1014.7 hPa | 0 mm | - | - | - |
| 1777470917 | 19.44° C | 76% | 1014.5 hPa | 0 mm | - | - | - |
| 1777469126 | 18.89° C | 78% | 1014.8 hPa | 0 mm | - | - | - |
| 1777466119 | 18.89° C | 76% | 1014.8 hPa | 0 mm | - | - | - |
| 1777465824 | 18.89° C | 76% | 1014.8 hPa | 0 mm | - | - | - |
| 1777465526 | 19.44° C | 75% | 1014.8 hPa | 0 mm | - | - | - |
| 1777464621 | 20° C | 74% | 1014.8 hPa | 0 mm | - | - | - |
| 1777462220 | 20° C | 74% | 1015 hPa | 0 mm | - | - | - |
| 1777458327 | 19.44° C | 71% | 1015.5 hPa | 0 mm | - | - | - |
| 1777457728 | 19.44° C | 71% | 1015.6 hPa | 0 mm | - | - | - |
| 1777457423 | 19.44° C | 71% | 1015.6 hPa | 0 mm | - | - | - |
| 1777453224 | 19.44° C | 71% | 1015.8 hPa | 0 mm | - | - | - |
| 1777452941 | 18.89° C | 71% | 1015.8 hPa | 0 mm | - | - | - |
| 1777450229 | 19.44° C | 68% | 1015.5 hPa | 0 mm | - | - | - |
| 1777448419 | 18.33° C | 65% | 1015.4 hPa | 0 mm | - | - | - |
| 1777447845 | 18.33° C | 64% | 1015.3 hPa | 0 mm | - | - | - |
| 1777447218 | 18.33° C | 62% | 1015.1 hPa | 0 mm | - | - | - |
| 1777445418 | 18.33° C | 60% | 1014.9 hPa | 0 mm | - | - | - |
| 1777445142 | 18.33° C | 60% | 1014.8 hPa | 0 mm | - | - | - |
| 1777444829 | 18.33° C | 61% | 1014.9 hPa | 0 mm | - | - | - |
| 1777441240 | 17.22° C | 64% | 1014.7 hPa | 0 mm | - | - | - |
| 1777440928 | 17.22° C | 64% | 1014.8 hPa | 0 mm | - | - | - |
| 1777440622 | 17.22° C | 64% | 1014.7 hPa | 0 mm | - | - | - |
| 1777440022 | 16.67° C | 63% | 1014.8 hPa | 0 mm | - | - | - |
* Rain latest hour (hover to see other rain measurements)
** Current wind speed in m/s (hover to see current wind gust speed)